TimeEST,TemperatureF,Dew PointF,Humidity,Sea Level PressureIn,VisibilityMPH,Wind Direction,Wind SpeedMPH,Gust SpeedMPH,PrecipitationIn,Events,Conditions,WindDirDegrees,DateUTC
12:15 AM,42.3,42.3,100,30.20,5.0,North,-9999.0,-,N/A,Rain,Light Rain,0,2012-11-27 05:15:00
12:35 AM,42.4,42.4,100,30.19,3.0,North,-9999.0,-,N/A,Rain,Light Rain,0,2012-11-27 05:35:00
12:55 AM,42.3,42.3,100,30.19,5.0,North,-9999.0,-,N/A,,Overcast,0,2012-11-27 05:55:00
1:15 AM,42.4,42.4,100,30.18,5.0,North,-9999.0,-,N/A,,Overcast,0,2012-11-27 06:15:00
1:35 AM,42.1,42.1,100,30.20,5.0,North,-9999.0,-,N/A,,Overcast,0,2012-11-27 06:35:00
1:55 AM,42.1,42.1,100,30.20,4.0,North,-9999.0,-,N/A,Rain,Light Rain,0,2012-11-27 06:55:00
2:15 AM,42.3,42.3,100,30.20,4.0,North,-9999.0,-,N/A,Rain,Light Rain,0,2012-11-27 07:15:00
2:35 AM,41.9,41.9,100,30.20,4.0,North,-9999.0,-,N/A,,Unknown,0,2012-11-27 07:35:00
2:55 AM,42.1,42.1,100,30.19,4.0,North,-9999.0,-,N/A,Rain,Light Rain,0,2012-11-27 07:55:00
3:15 AM,41.9,41.9,100,30.18,3.0,North,-9999.0,-,N/A,Rain,Light Rain,0,2012-11-27 08:15:00
3:35 AM,42.3,42.3,100,30.17,5.0,North,-9999.0,-,N/A,Rain,Rain,0,2012-11-27 08:35:00
3:55 AM,42.1,42.1,100,30.17,5.0,North,-9999.0,-,N/A,,Overcast,0,2012-11-27 08:55:00
4:15 AM,42.4,42.4,100,30.17,4.0,North,-9999.0,-,N/A,,Overcast,0,2012-11-27 09:15:00
4:35 AM,42.8,42.8,100,30.16,5.0,North,-9999.0,-,N/A,,Overcast,0,2012-11-27 09:35:00
4:55 AM,42.3,42.3,100,30.16,5.0,North,-9999.0,-,N/A,,Overcast,0,2012-11-27 09:55:00
5:15 AM,42.3,42.3,100,30.17,2.5,North,-9999.0,-,N/A,,Drizzle,0,2012-11-27 10:15:00
5:35 AM,41.9,41.9,100,30.16,2.5,North,-9999.0,-,N/A,Rain,Rain,0,2012-11-27 10:35:00
5:55 AM,42.1,42.1,100,30.17,2.5,North,-9999.0,-,N/A,Rain,Light Rain,0,2012-11-27 10:55:00
6:15 AM,42.8,42.8,100,30.17,3.0,North,-9999.0,-,N/A,Rain,Light Rain,0,2012-11-27 11:15:00
6:35 AM,42.1,42.1,100,30.17,3.0,North,-9999.0,-,N/A,,Overcast,0,2012-11-27 11:35:00
6:55 AM,42.1,42.1,100,30.17,3.0,North,-9999.0,-,N/A,,Overcast,0,2012-11-27 11:55:00
7:15 AM,42.4,42.4,100,30.18,4.0,North,-9999.0,-,N/A,,Drizzle,0,2012-11-27 12:15:00
7:35 AM,42.6,42.6,100,30.19,4.0,North,-9999.0,-,N/A,,Overcast,0,2012-11-27 12:35:00
7:55 AM,42.4,42.4,100,30.20,4.0,North,-9999.0,-,N/A,,Overcast,0,2012-11-27 12:55:00
8:15 AM,42.4,42.4,100,30.20,2.5,North,-9999.0,-,N/A,,Overcast,0,2012-11-27 13:15:00
8:35 AM,42.8,42.8,100,30.21,3.0,North,-9999.0,-,N/A,,Overcast,0,2012-11-27 13:35:00
8:55 AM,42.8,42.8,100,30.21,7.0,North,-9999.0,-,N/A,,Overcast,0,2012-11-27 13:55:00
9:15 AM,42.6,42.6,100,30.23,2.0,North,-9999.0,-,N/A,,Overcast,0,2012-11-27 14:15:00
9:35 AM,42.6,42.6,100,30.23,1.5,North,-9999.0,-,N/A,,Overcast,0,2012-11-27 14:35:00
9:55 AM,42.4,42.4,100,30.23,1.5,North,-9999.0,-,N/A,,Overcast,0,2012-11-27 14:55:00
10:15 AM,42.6,42.6,100,30.24,4.0,North,-9999.0,-,N/A,,Overcast,0,2012-11-27 15:15:00
10:35 AM,42.4,42.4,100,30.25,7.0,North,-9999.0,-,N/A,,Overcast,0,2012-11-27 15:35:00
10:55 AM,42.3,42.1,99,30.25,10.0,North,-9999.0,-,N/A,,Overcast,0,2012-11-27 15:55:00
11:35 AM,42.3,41.2,96,30.25,10.0,North,-9999.0,-,N/A,,Overcast,0,2012-11-27 16:35:00
11:55 AM,42.1,40.5,94,30.25,10.0,North,-9999.0,-,N/A,,Overcast,0,2012-11-27 16:55:00
12:15 PM,42.3,40.5,93,30.25,10.0,North,-9999.0,-,N/A,,Overcast,0,2012-11-27 17:15:00
12:55 PM,42.8,40.3,91,30.24,10.0,North,-9999.0,-,N/A,,Overcast,0,2012-11-27 17:55:00
1:15 PM,42.8,39.7,89,30.24,10.0,North,-9999.0,-,N/A,,Overcast,0,2012-11-27 18:15:00
1:35 PM,43.0,40.1,90,30.24,10.0,North,-9999.0,-,N/A,,Overcast,0,2012-11-27 18:35:00
1:55 PM,42.3,39.6,90,30.24,10.0,North,-9999.0,-,N/A,,Overcast,0,2012-11-27 18:55:00
2:15 PM,42.3,39.7,91,30.23,10.0,North,-9999.0,-,N/A,,Overcast,0,2012-11-27 19:15:00
2:35 PM,42.3,40.1,92,30.23,10.0,North,-9999.0,-,N/A,,Overcast,0,2012-11-27 19:35:00
3:15 PM,41.0,39.2,93,30.23,10.0,North,-9999.0,-,N/A,,Overcast,0,2012-11-27 20:15:00
3:35 PM,40.3,39.2,96,30.23,7.0,North,-9999.0,-,N/A,,Overcast,0,2012-11-27 20:35:00
3:55 PM,40.3,39.2,96,30.23,10.0,North,-9999.0,-,N/A,,Overcast,0,2012-11-27 20:55:00
4:15 PM,40.3,39.0,95,30.24,10.0,North,-9999.0,-,N/A,,Overcast,0,2012-11-27 21:15:00
4:35 PM,40.3,38.7,94,30.25,10.0,North,-9999.0,-,N/A,,Overcast,0,2012-11-27 21:35:00
4:55 PM,40.3,38.5,93,30.25,10.0,North,-9999.0,-,N/A,,Overcast,0,2012-11-27 21:55:00
5:15 PM,40.1,38.5,94,30.25,10.0,North,-9999.0,-,N/A,,Overcast,0,2012-11-27 22:15:00
5:55 PM,39.6,38.3,95,30.26,10.0,North,-9999.0,-,N/A,,Overcast,0,2012-11-27 22:55:00
6:15 PM,39.4,38.3,96,30.27,10.0,North,-9999.0,-,N/A,,Overcast,0,2012-11-27 23:15:00
6:35 PM,38.8,37.6,95,30.28,7.0,North,-9999.0,-,N/A,,Overcast,0,2012-11-27 23:35:00
6:55 PM,39.2,38.1,96,30.28,7.0,North,-9999.0,-,N/A,,Overcast,0,2012-11-27 23:55:00
7:15 PM,38.8,37.6,95,30.29,10.0,North,-9999.0,-,N/A,,Overcast,0,2012-11-28 00:15:00
7:35 PM,38.7,37.4,95,30.29,10.0,North,-9999.0,-,N/A,,Overcast,0,2012-11-28 00:35:00
7:55 PM,38.5,36.9,94,30.30,10.0,North,-9999.0,-,N/A,,Overcast,0,2012-11-28 00:55:00
8:15 PM,38.7,37.0,94,30.30,10.0,North,-9999.0,-,N/A,,Overcast,0,2012-11-28 01:15:00
8:35 PM,38.7,37.0,94,30.30,10.0,North,-9999.0,-,N/A,,Overcast,0,2012-11-28 01:35:00
8:55 PM,38.5,36.9,94,30.30,10.0,North,-9999.0,-,N/A,,Overcast,0,2012-11-28 01:55:00
9:15 PM,38.8,36.9,93,30.30,10.0,North,-9999.0,-,N/A,,Overcast,0,2012-11-28 02:15:00
9:35 PM,38.3,36.5,93,30.30,10.0,North,-9999.0,-,N/A,,Overcast,0,2012-11-28 02:35:00
9:55 PM,38.3,36.3,93,30.31,10.0,North,-9999.0,-,N/A,,Overcast,0,2012-11-28 02:55:00
10:15 PM,38.3,36.0,91,30.31,10.0,North,-9999.0,-,N/A,,Overcast,0,2012-11-28 03:15:00
10:35 PM,37.9,36.0,93,30.31,10.0,North,-9999.0,-,N/A,,Overcast,0,2012-11-28 03:35:00
10:55 PM,37.9,36.0,93,30.31,10.0,North,-9999.0,-,N/A,,Overcast,0,2012-11-28 03:55:00
11:15 PM,37.8,36.0,93,30.31,10.0,North,-9999.0,-,N/A,,Overcast,0,2012-11-28 04:15:00
11:35 PM,37.8,36.3,95,30.31,10.0,North,-9999.0,-,N/A,,Overcast,0,2012-11-28 04:35:00
11:55 PM,37.4,36.1,95,30.31,10.0,North,-9999.0,-,N/A,,Overcast,0,2012-11-28 04:55:00